| time (UTC) | temp F | wind direction | speed knots | gust knots | rain 1hr in | rain 24hr in | rain mn in | humidity % | barometer mb |
| 20260502194324 | 0 | 0.0 | 0.0 | 0.00 | 0.00 | 0.00 | 991.9 | ||
| 20260502193330 | 0 | 0.0 | 0.0 | 0.00 | 0.00 | 0.00 | 992.0 | ||
| 20260502191310 | 0 | 0.0 | 0.0 | 0.00 | 0.00 | 0.00 | 992.2 | ||
| 20260502190335 | 0 | 0.0 | 0.0 | 0.00 | 0.00 | 0.00 | 992.3 | ||
| 20260502185310 | 0 | 0.0 | 0.0 | 0.00 | 0.00 | 0.00 | 992.1 | ||
| 20260502184317 | 0 | 0.0 | 0.0 | 0.00 | 0.00 | 0.00 | 992.1 | ||
| 20260502183343 | 0 | 0.0 | 0.0 | 0.00 | 0.00 | 0.00 | 992.0 | ||
| 20260502182327 | 0 | 0.0 | 0.0 | 0.00 | 0.00 | 0.00 | 992.1 | ||
| 20260502181314 | 0 | 0.0 | 0.0 | 0.00 | 0.00 | 0.00 | 991.7 | ||
| 20260502180327 | 0 | 0.0 | 0.0 | 0.00 | 0.00 | 0.00 | 991.7 | ||
| 20260502170330 | 68 | 323 | 0.0 | 1.7 | 0.00 | 0.00 | 0.00 | 35 | 991.6 |
| 20260502164328 | 68 | 32 | 0.0 | 0.0 | 0.00 | 0.00 | 0.00 | 33 | 991.7 |
| 20260502163330 | 67 | 101 | 0.0 | 0.0 | 0.00 | 0.00 | 0.00 | 33 | 991.5 |
| 20260502162328 | 67 | 102 | 0.0 | 0.0 | 0.00 | 0.00 | 0.00 | 33 | 991.5 |
| 20260502161329 | 67 | 102 | 0.0 | 0.9 | 0.00 | 0.00 | 0.00 | 33 | 991.6 |
| 20260502160328 | 67 | 102 | 0.0 | 0.0 | 0.00 | 0.00 | 0.00 | 34 | 991.7 |
| 20260502152328 | 68 | 102 | 0.0 | 0.0 | 0.00 | 0.00 | 0.00 | 33 | 991.9 |
| 20260502151330 | 68 | 102 | 0.0 | 0.0 | 0.00 | 0.00 | 0.00 | 32 | 992.0 |
| 20260502150330 | 68 | 102 | 0.0 | 0.0 | 0.00 | 0.00 | 0.00 | 31 | 991.8 |
| 20260502130319 | 71 | 101 | 0.0 | 0.0 | 0.00 | 0.00 | 0.00 | 28 | 991.6 |
| 20260502123339 | 71 | 102 | 0.0 | 0.0 | 0.00 | 0.00 | 0.00 | 29 | 991.2 |
| 20260502122343 | 71 | 101 | 0.0 | 0.0 | 0.00 | 0.00 | 0.00 | 28 | 991.1 |
| 20260502121324 | 71 | 101 | 0.0 | 0.0 | 0.00 | 0.00 | 0.00 | 26 | 991.1 |
| 20260502120323 | 72 | 102 | 0.0 | 0.0 | 0.00 | 0.00 | 0.00 | 25 | 990.9 |
| 20260502115338 | 72 | 102 | 0.0 | 0.0 | 0.00 | 0.00 | 0.00 | 25 | 990.8 |
| 20260502114341 | 73 | 102 | 0.0 | 0.0 | 0.00 | 0.00 | 0.00 | 23 | 990.8 |
| 20260502113321 | 73 | 101 | 0.0 | 0.0 | 0.00 | 0.00 | 0.00 | 22 | 990.5 |
| 20260502112323 | 73 | 102 | 0.0 | 0.9 | 0.00 | 0.00 | 0.00 | 22 | 990.3 |
| 20260502111328 | 73 | 102 | 0.0 | 0.0 | 0.00 | 0.00 | 0.00 | 24 | 990.1 |
| 20260502110329 | 74 | 102 | 0.0 | 0.0 | 0.00 | 0.00 | 0.00 | 22 | 990.0 |
| 20260502105325 | 74 | 102 | 0.0 | 0.9 | 0.00 | 0.00 | 0.00 | 21 | 989.8 |
| 20260502104329 | 74 | 105 | 0.0 | 0.0 | 0.00 | 0.00 | 0.00 | 21 | 989.6 |
| 20260502103331 | 74 | 103 | 0.0 | 0.9 | 0.00 | 0.00 | 0.00 | 22 | 989.6 |
| 20260502102313 | 75 | 105 | 0.0 | 0.9 | 0.00 | 0.00 | 0.00 | 21 | 989.4 |
| 20260502101352 | 75 | 74 | 0.0 | 1.7 | 0.00 | 0.00 | 0.00 | 20 | 989.4 |
| 20260502100330 | 75 | 108 | 0.0 | 0.0 | 0.00 | 0.00 | 0.00 | 20 | 989.4 |
| 20260502091336 | 76 | 61 | 0.0 | 3.5 | 0.00 | 0.00 | 0.00 | 19 | 988.7 |
| 20260502090316 | 77 | 127 | 0.0 | 1.7 | 0.00 | 0.00 | 0.00 | 19 | 988.6 |
| 20260502071317 | 80 | 256 | 0.9 | 4.3 | 0.00 | 0.00 | 0.00 | 23 | 987.2 |
| 20260502070337 | 80 | 101 | 0.9 | 3.5 | 0.00 | 0.00 | 0.00 | 24 | 987.2 |
| 20260502065312 | 80 | 278 | 0.9 | 4.3 | 0.00 | 0.00 | 0.00 | 24 | 987.1 |
| 20260502064313 | 80 | 108 | 0.9 | 4.3 | 0.00 | 0.00 | 0.00 | 24 | 987.1 |
| 20260502063326 | 82 | 133 | 2.6 | 5.2 | 0.00 | 0.00 | 0.00 | 23 | 986.9 |
| 20260502062313 | 82 | 310 | 0.0 | 2.6 | 0.00 | 0.00 | 0.00 | 15 | 986.7 |
| 20260502061332 | 82 | 301 | 0.0 | 4.3 | 0.00 | 0.00 | 0.00 | 15 | 986.6 |
| 20260502060332 | 82 | 339 | 2.6 | 5.2 | 0.00 | 0.00 | 0.00 | 15 | 986.4 |
| 20260502055327 | 82 | 358 | 2.6 | 6.1 | 0.00 | 0.00 | 0.00 | 15 | 986.3 |
| 20260502054329 | 82 | 318 | 1.7 | 7.0 | 0.00 | 0.00 | 0.00 | 15 | 986.2 |
| 20260502053324 | 81 | 102 | 0.9 | 6.1 | 0.00 | 0.00 | 0.00 | 15 | 986.2 |
| 20260502052327 | 81 | 92 | 2.6 | 6.1 | 0.00 | 0.00 | 0.00 | 16 | 986.1 |
| 20260502051331 | 81 | 325 | 1.7 | 5.2 | 0.00 | 0.00 | 0.00 | 15 | 986.0 |
| 20260502050350 | 82 | 307 | 1.7 | 7.0 | 0.00 | 0.00 | 0.00 | 15 | 985.9 |
| 20260502045323 | 82 | 308 | 0.9 | 7.0 | 0.00 | 0.00 | 0.00 | 15 | 985.8 |
| 20260502044325 | 81 | 349 | 0.9 | 7.8 | 0.00 | 0.00 | 0.00 | 15 | 985.7 |
| 20260502043325 | 81 | 277 | 0.9 | 11.3 | 0.00 | 0.00 | 0.00 | 15 | 985.6 |
| 20260502042329 | 82 | 65 | 1.7 | 8.7 | 0.00 | 0.00 | 0.00 | 15 | 985.5 |
| 20260502041330 | 80 | 280 | 3.5 | 9.6 | 0.00 | 0.00 | 0.00 | 15 | 985.6 |
| 20260502040331 | 80 | 316 | 0.9 | 7.0 | 0.00 | 0.16 | 0.00 | 16 | 985.4 |
| 20260502035326 | 80 | 310 | 5.2 | 16.5 | 0.00 | 0.16 | 0.00 | 15 | 985.6 |
| 20260502034328 | 80 | 142 | 2.6 | 12.2 | 0.00 | 0.16 | 0.00 | 16 | 985.4 |
| 20260502033358 | 80 | 321 | 2.6 | 6.1 | 0.00 | 0.16 | 0.00 | 17 | 985.2 |
| 20260502032313 | 80 | 333 | 1.7 | 8.7 | 0.00 | 0.16 | 0.00 | 18 | 985.0 |
| 20260502031314 | 80 | 335 | 2.6 | 7.0 | 0.00 | 0.16 | 0.00 | 18 | 985.0 |
| 20260502030315 | 79 | 298 | 1.7 | 10.4 | 0.00 | 0.47 | 0.00 | 19 | 984.9 |
| 20260502025329 | 79 | 319 | 3.5 | 9.6 | 0.00 | 0.47 | 0.00 | 19 | 984.7 |
| 20260502024330 | 78 | 319 | 5.2 | 11.3 | 0.00 | 0.47 | 0.00 | 19 | 984.7 |
| 20260502023352 | 79 | 39 | 4.3 | 10.4 | 0.00 | 0.47 | 0.00 | 20 | 984.6 |
| 20260502022333 | 78 | 269 | 1.7 | 13.9 | 0.00 | 0.47 | 0.00 | 20 | 984.6 |
| 20260502021336 | 78 | 319 | 2.6 | 14.8 | 0.00 | 0.47 | 0.00 | 19 | 984.4 |
| 20260502020336 | 78 | 239 | 1.7 | 8.7 | 0.00 | 0.79 | 0.00 | 19 | 984.2 |
| 20260502015334 | 77 | 218 | 1.7 | 9.6 | 0.00 | 0.79 | 0.00 | 20 | 984.1 |
| 20260502014337 | 77 | 325 | 4.3 | 13.9 | 0.00 | 0.79 | 0.00 | 19 | 983.9 |
| 20260502013334 | 77 | 319 | 1.7 | 12.2 | 0.00 | 0.79 | 0.00 | 21 | 983.7 |
| 20260502012337 | 77 | 298 | 2.6 | 9.6 | 0.00 | 0.79 | 0.00 | 21 | 983.8 |
| 20260502011313 | 76 | 356 | 4.3 | 14.8 | 0.00 | 0.79 | 0.00 | 23 | 983.8 |
| 20260502010340 | 75 | 332 | 0.9 | 4.3 | 0.00 | 2.17 | 0.00 | 27 | 983.9 |
| 20260502005334 | 74 | 264 | 0.0 | 2.6 | 0.00 | 2.17 | 0.00 | 32 | 984.0 |
| 20260502004333 | 73 | 105 | 0.9 | 5.2 | 0.00 | 2.17 | 0.00 | 34 | 983.8 |
| 20260502003314 | 73 | 121 | 2.6 | 6.1 | 0.00 | 2.17 | 0.00 | 34 | 983.7 |
| 20260502002335 | 72 | 266 | 1.7 | 7.8 | 0.00 | 2.17 | 0.00 | 34 | 983.6 |
| 20260502001336 | 72 | 203 | 0.0 | 4.3 | 0.00 | 2.17 | 0.00 | 35 | 983.7 |
| 20260502000332 | 71 | 170 | 1.7 | 3.5 | 0.00 | 4.02 | 0.00 | 35 | 983.6 |
| 20260501235329 | 70 | 276 | 1.7 | 4.3 | 0.00 | 4.02 | 0.00 | 35 | 983.7 |
| 20260501234331 | 70 | 16 | 0.9 | 5.2 | 0.00 | 4.02 | 0.00 | 35 | 983.5 |
| 20260501233334 | 71 | 250 | 0.9 | 2.6 | 0.00 | 4.02 | 0.00 | 33 | 983.4 |
| 20260501232330 | 70 | 304 | 0.9 | 3.5 | 0.00 | 4.02 | 0.00 | 32 | 983.1 |
| 20260501231330 | 69 | 325 | 1.7 | 4.3 | 0.00 | 4.02 | 0.00 | 35 | 982.9 |
| 20260501230329 | 68 | 162 | 0.9 | 3.5 | 0.00 | 4.65 | 0.00 | 37 | 982.8 |
| 20260501225331 | 68 | 241 | 0.0 | 3.5 | 0.00 | 4.65 | 0.00 | 39 | 982.7 |
| 20260501224323 | 67 | 349 | 0.9 | 2.6 | 0.00 | 4.65 | 0.00 | 40 | 982.4 |
| 20260501223352 | 66 | 243 | 0.0 | 2.6 | 0.00 | 4.65 | 0.00 | 41 | 982.3 |
| 20260501222330 | 65 | 214 | 0.0 | 2.6 | 0.00 | 4.65 | 0.00 | 43 | 982.3 |
| 20260501221324 | 65 | 326 | 0.0 | 0.9 | 0.00 | 4.65 | 0.00 | 43 | 982.1 |
| 20260501220326 | 64 | 323 | 0.9 | 4.3 | 0.00 | 4.65 | 0.00 | 45 | 982.0 |
| 20260501215321 | 63 | 335 | 1.7 | 4.3 | 0.00 | 4.65 | 0.00 | 46 | 981.7 |
| 20260501214316 | 63 | 329 | 0.0 | 4.3 | 0.00 | 4.65 | 0.00 | 47 | 981.5 |
| 20260501213319 | 62 | 318 | 0.9 | 4.3 | 0.00 | 4.65 | 0.00 | 48 | 981.2 |
| 20260501212319 | 62 | 345 | 0.9 | 6.1 | 0.00 | 4.65 | 0.00 | 48 | 981.1 |
| 20260501211319 | 62 | 328 | 0.9 | 9.6 | 0.00 | 4.65 | 0.00 | 48 | 980.8 |
| 20260501210318 | 62 | 340 | 2.6 | 7.0 | 0.00 | 4.65 | 0.00 | 49 | 980.8 |
| 20260501205319 | 0 | 0.0 | 0.0 | 0.00 | 4.65 | 0.00 | 980.6 | ||
| 20260501204326 | 0 | 0.0 | 0.0 | 0.00 | 4.65 | 0.00 | 980.5 | ||
| 20260501203325 | 0 | 0.0 | 0.0 | 0.00 | 4.65 | 0.00 | 980.2 | ||
| 20260501202329 | 0 | 0.0 | 0.0 | 0.00 | 4.65 | 0.00 | 980.1 | ||
| 20260501200321 | 0 | 0.0 | 0.0 | 0.00 | 4.65 | 0.00 | 979.3 | ||
| 20260501195347 | 0 | 0.0 | 0.0 | 0.00 | 4.65 | 0.00 | 979.2 |